Regional Weather Roundup
Issued by NWS Bismarck, ND

Home | Current Version | Previous Version | Text Only | Print | Product List | Glossary On
Versions: 1 2 3 4 5 6 7 8 9 10 11 12 13 14 15 16 17 18 19 20 21 22 23 24 25 26 27 28 29 30 31 32 33 34 35 36 37 38 39 40 41 42 43 44 45 46 47 48 49 50
000
ASUS43 KBIS 180002
RWRBIS

NWR BROADCAST TEXT
NATIONAL WEATHER SERVICE BISMARCK ND
700 PM CDT TUE OCT 17 2017

NOTE: "FAIR" INDICATES FEW OR NO CLOUDS BELOW 12,000 FEET WITH NO
SIGNIFICANT WEATHER AND/OR OBSTRUCTIONS TO VISIBILITY.


CITY           SKY/WX    TMP DP  RH WIND       PRES   REMARKS
WILLISTON      CLOUDY    69  26  20 S7        29.59F
MINOT          CLEAR     70  31  23 S14       29.60F
MINOT AFB      CLEAR     67  31  27 SW15      29.57F
BISMARCK       CLOUDY    71  27  19 SW8       29.71F
DICKINSON      CLEAR     59  25  27 SW13      29.70F
GARRISON         N/A     61  31  32 SW12      29.65F
HETTINGER ARPT CLEAR     59  25  27 SW8       29.79F
JAMESTOWN      CLEAR     62  32  32 S7        29.72F
CARRINGTON     FAIR      61  34  36 S10       29.70F
HAZEN          FAIR      66  25  20 SW10      29.68F
LINTON         FAIR      64  28  25 S13       29.77S
RUGBY          FAIR      64  34  32 S12       29.61F
STANLEY        FAIR      64  27  24 SW17      29.62F
TIOGA          FAIR      63  30  29 SW12      29.61S
WATFORD CITY   FAIR      66  25  20 SW13      29.62F
$$

CITY           SKY/WX    TMP DP  RH WIND       PRES   REMARKS
GRAND FORKS    PTCLDY    64  33  31 SW9       29.66F
GRAND FORKS AF CLEAR     66  30  26 SW9       29.66F
DEVILS LAKE    CLEAR     64  38  38 S8        29.65F
FARGO          CLEAR     66  42  41 S12       29.73F
CANDO          FAIR      63  32  31 SW10      29.64F
CAVALIER       FAIR      66  37  34 SW6       29.60F
GRAFTON        FAIR      66  34  30 S12       29.65F
GWINNER        CLEAR     59  39  47 SW8       29.76F
LANGDON          N/A     64  32  29 SW14      29.62F
ROLLA          FAIR      64  30  27 SW16      29.59F
WALHALLA       FAIR     N/A N/A N/A SW7       29.59F
$$

CITY           SKY/WX    TMP DP  RH WIND       PRES   REMARKS
ABERDEEN       CLEAR     64  38  38 S8        29.81S
MOBRIDGE       CLEAR     68  44  42 S9        29.77S
BUFFALO          N/A     66  19  16 SW15      29.75S
RAPID CITY     CLEAR     66  26  22 W7        29.84S
GLASGOW        CLOUDY    71  24  17 SW13      29.55F
SIDNEY         CLOUDY    68  26  20 SW12      29.62F
WOLF POINT     PTCLDY    72  25  17 SW9       29.56F
GLENDIVE       CLOUDY    66  25  21 SW10      29.67F
MILES CITY     CLOUDY    69  27  20 SW10      29.71F
BAKER          CLOUDY    66  24  20 S10       29.76F
$$

CITY           SKY/WX    TMP DP  RH WIND       PRES   REMARKS
BILLINGS       CLOUDY    71  23  16 SW12G23   29.77F
GREAT FALLS    CLEAR     68  18  14 SW29G46   29.63F
$$





USA.gov is the U.S. government's official web portal to all federal, state and local government web resources and services.